Time,TemperatureF,DewpointF,PressureIn,WindDirection,WindDirectionDegrees,WindSpeedMPH,WindSpeedGustMPH,Humidity,HourlyPrecipIn,Conditions,Clouds,dailyrainin,SoftwareType,DateUTC
2013-03-28 00:07:00,27.4,26.0,30.50,WNW,301,0.0,6.0,94,0.00,,,0.01,weatherlink.com 1.10,2013-03-28 04:07:00,
2013-03-28 00:22:00,27.4,26.0,30.50,ESE,103,0.0,6.0,94,0.00,,,0.01,weatherlink.com 1.10,2013-03-28 04:22:00,
2013-03-28 00:37:00,27.2,26.0,30.49,NNE,26,0.0,9.0,94,0.00,,,0.01,weatherlink.com 1.10,2013-03-28 04:37:00,
2013-03-28 00:52:00,27.2,26.0,30.49,NW,313,1.0,5.0,94,0.00,,,0.00,weatherlink.com 1.10,2013-03-28 04:52:00,
2013-03-28 01:07:00,27.1,26.0,30.48,NW,324,0.0,5.0,94,0.00,,,0.00,weatherlink.com 1.10,2013-03-28 05:07:00,
2013-03-28 01:22:00,27.0,26.0,30.48,WNW,282,0.0,6.0,94,0.00,,,0.00,weatherlink.com 1.10,2013-03-28 05:22:00,
2013-03-28 01:37:00,27.0,26.0,30.48,North,5,1.0,4.0,95,0.00,,,0.00,weatherlink.com 1.10,2013-03-28 05:37:00,
2013-03-28 01:52:00,26.9,26.0,30.48,West,280,0.0,4.0,95,0.00,,,0.00,weatherlink.com 1.10,2013-03-28 05:52:00,
2013-03-28 02:07:00,27.0,26.0,30.48,WSW,240,0.0,5.0,95,0.00,,,0.00,weatherlink.com 1.10,2013-03-28 06:07:00,
2013-03-28 02:22:00,26.9,26.0,30.48,WNW,284,1.0,2.0,95,0.00,,,0.00,weatherlink.com 1.10,2013-03-28 06:22:00,
2013-03-28 02:37:00,27.0,26.0,30.48,WSW,257,0.0,3.0,95,0.00,,,0.00,weatherlink.com 1.10,2013-03-28 06:37:00,
2013-03-28 02:53:00,26.9,26.0,30.48,NNW,330,1.0,9.0,95,0.00,,,0.00,weatherlink.com 1.10,2013-03-28 06:53:00,
2013-03-28 03:08:00,26.9,25.0,30.48,NW,321,0.0,3.0,94,0.00,,,0.00,weatherlink.com 1.10,2013-03-28 07:08:00,
2013-03-28 03:23:00,26.8,25.0,30.48,West,261,0.0,4.0,94,0.00,,,0.00,weatherlink.com 1.10,2013-03-28 07:23:00,
2013-03-28 03:38:00,26.8,25.0,30.47,NNE,22,0.0,5.0,94,0.00,,,0.00,weatherlink.com 1.10,2013-03-28 07:38:00,
2013-03-28 03:53:00,26.7,25.0,30.47,WNW,285,0.0,1.0,94,0.00,,,0.00,weatherlink.com 1.10,2013-03-28 07:53:00,
2013-03-28 04:08:00,26.6,25.0,30.47,West,275,0.0,4.0,94,0.00,,,0.00,weatherlink.com 1.10,2013-03-28 08:08:00,
2013-03-28 04:23:00,26.5,25.0,30.47,NNW,345,1.0,2.0,94,0.00,,,0.00,weatherlink.com 1.10,2013-03-28 08:23:00,
2013-03-28 04:38:00,26.5,25.0,30.47,ESE,113,0.0,4.0,94,0.00,,,0.00,weatherlink.com 1.10,2013-03-28 08:38:00,
2013-03-28 04:53:00,26.4,25.0,30.48,NNW,333,1.0,3.0,94,0.00,,,0.00,weatherlink.com 1.10,2013-03-28 08:53:00,
2013-03-28 05:08:00,26.4,25.0,30.47,WSW,254,0.0,5.0,94,0.00,,,0.00,weatherlink.com 1.10,2013-03-28 09:08:00,
2013-03-28 05:23:00,26.3,25.0,30.47,West,268,0.0,3.0,94,0.00,,,0.00,weatherlink.com 1.10,2013-03-28 09:23:00,
2013-03-28 05:38:00,26.2,25.0,30.47,WNW,294,0.0,3.0,94,0.00,,,0.00,weatherlink.com 1.10,2013-03-28 09:38:00,
2013-03-28 05:53:00,26.1,25.0,30.48,WNW,290,0.0,4.0,94,0.00,,,0.00,weatherlink.com 1.10,2013-03-28 09:53:00,
2013-03-28 06:08:00,26.1,25.0,30.48,NE,42,0.0,2.0,94,0.00,,,0.00,weatherlink.com 1.10,2013-03-28 10:08:00,
2013-03-28 06:23:00,26.0,25.0,30.48,NNE,15,0.0,3.0,94,0.00,,,0.00,weatherlink.com 1.10,2013-03-28 10:23:00,
2013-03-28 06:38:00,25.9,24.0,30.48,NW,311,0.0,3.0,94,0.00,,,0.00,weatherlink.com 1.10,2013-03-28 10:38:00,
2013-03-28 06:53:00,25.7,24.0,30.48,West,280,0.0,4.0,94,0.00,,,0.00,weatherlink.com 1.10,2013-03-28 10:53:00,
2013-03-28 07:08:00,25.6,24.0,30.49,West,273,3.0,11.0,93,0.00,,,0.00,weatherlink.com 1.10,2013-03-28 11:08:00,
2013-03-28 07:23:00,25.5,23.0,30.49,SW,232,4.0,4.0,91,0.00,,,0.00,weatherlink.com 1.10,2013-03-28 11:23:00,
2013-03-28 07:38:00,25.4,23.0,30.49,WNW,300,1.0,6.0,89,0.00,,,0.00,weatherlink.com 1.10,2013-03-28 11:38:00,
2013-03-28 07:53:00,25.3,23.0,30.50,NW,319,2.0,2.0,89,0.00,,,0.00,weatherlink.com 1.10,2013-03-28 11:53:00,
2013-03-28 08:08:00,25.6,23.0,30.50,NNW,340,0.0,8.0,88,0.00,,,0.00,weatherlink.com 1.10,2013-03-28 12:08:00,
2013-03-28 08:23:00,25.9,23.0,30.50,WNW,300,0.0,1.0,88,0.00,,,0.00,weatherlink.com 1.10,2013-03-28 12:23:00,
2013-03-28 08:38:00,26.2,23.0,30.51,WNW,298,1.0,2.0,87,0.00,,,0.00,weatherlink.com 1.10,2013-03-28 12:38:00,
2013-03-28 08:53:00,26.6,23.0,30.51,WSW,248,0.0,3.0,87,0.00,,,0.00,weatherlink.com 1.10,2013-03-28 12:53:00,
2013-03-28 09:08:00,26.9,24.0,30.52,North,360,0.0,8.0,87,0.00,,,0.00,weatherlink.com 1.10,2013-03-28 13:08:00,
2013-03-28 09:23:00,27.5,24.0,30.52,SSW,205,1.0,5.0,85,0.00,,,0.00,weatherlink.com 1.10,2013-03-28 13:23:00,
2013-03-28 09:38:00,28.3,24.0,30.52,NW,306,0.0,1.0,85,0.00,,,0.00,weatherlink.com 1.10,2013-03-28 13:38:00,
2013-03-28 09:53:00,28.7,24.0,30.52,NNW,336,3.0,5.0,83,0.00,,,0.00,weatherlink.com 1.10,2013-03-28 13:53:00,
2013-03-28 10:08:00,28.8,24.0,30.52,North,5,1.0,6.0,82,0.00,,,0.00,weatherlink.com 1.10,2013-03-28 14:08:00,
2013-03-28 10:23:00,29.5,24.0,30.53,WNW,294,0.0,8.0,81,0.00,,,0.00,weatherlink.com 1.10,2013-03-28 14:23:00,
2013-03-28 10:39:00,31.3,26.0,30.53,NW,322,0.0,7.0,79,0.00,,,0.00,weatherlink.com 1.10,2013-03-28 14:39:00,
2013-03-28 10:54:00,31.4,25.0,30.53,North,9,1.0,5.0,77,0.00,,,0.00,weatherlink.com 1.10,2013-03-28 14:54:00,
2013-03-28 11:09:00,30.7,25.0,30.53,NW,323,4.0,5.0,78,0.00,,,0.00,weatherlink.com 1.10,2013-03-28 15:09:00,
2013-03-28 11:24:00,31.9,24.0,30.53,West,275,1.0,9.0,73,0.00,,,0.00,weatherlink.com 1.10,2013-03-28 15:24:00,
2013-03-28 11:39:00,32.2,24.0,30.52,WNW,282,0.0,8.0,73,0.00,,,0.00,weatherlink.com 1.10,2013-03-28 15:39:00,
2013-03-28 11:54:00,32.2,24.0,30.53,ENE,59,1.0,8.0,73,0.00,,,0.00,weatherlink.com 1.10,2013-03-28 15:54:00,
2013-03-28 12:09:00,33.7,26.0,30.52,NNE,19,3.0,9.0,74,0.00,,,0.00,weatherlink.com 1.10,2013-03-28 16:09:00,
2013-03-28 12:24:00,34.3,25.0,30.52,NNE,32,0.0,7.0,69,0.00,,,0.00,weatherlink.com 1.10,2013-03-28 16:24:00,
2013-03-28 12:39:00,34.6,26.0,30.52,NW,325,2.0,5.0,71,0.00,,,0.00,weatherlink.com 1.10,2013-03-28 16:39:00,
2013-03-28 12:54:00,34.8,26.0,30.51,West,275,1.0,7.0,70,0.00,,,0.00,weatherlink.com 1.10,2013-03-28 16:54:00,
2013-03-28 13:09:00,35.4,25.0,30.52,West,277,0.0,8.0,65,0.00,,,0.00,weatherlink.com 1.10,2013-03-28 17:09:00,
2013-03-28 13:24:00,36.3,25.0,30.51,West,265,3.0,6.0,65,0.00,,,0.00,weatherlink.com 1.10,2013-03-28 17:24:00,
2013-03-28 13:39:00,36.1,26.0,30.51,North,360,0.0,8.0,67,0.02,,,0.02,weatherlink.com 1.10,2013-03-28 17:39:00,
2013-03-28 13:54:00,37.0,24.0,30.51,NNE,22,0.0,8.0,60,0.05,,,0.05,weatherlink.com 1.10,2013-03-28 17:54:00,
2013-03-28 14:09:00,37.4,26.0,30.51,NNW,348,5.0,13.0,64,0.09,,,0.09,weatherlink.com 1.10,2013-03-28 18:09:00,
2013-03-28 14:24:00,36.5,25.0,30.51,West,266,4.0,8.0,63,0.11,,,0.11,weatherlink.com 1.10,2013-03-28 18:24:00,
2013-03-28 14:39:00,36.5,26.0,30.51,NW,325,1.0,5.0,66,0.11,,,0.13,weatherlink.com 1.10,2013-03-28 18:39:00,
2013-03-28 14:54:00,38.2,26.0,30.51,SE,127,3.0,8.0,61,0.10,,,0.15,weatherlink.com 1.10,2013-03-28 18:54:00,
2013-03-28 15:09:00,38.1,24.0,30.50,NNE,14,0.0,9.0,58,0.08,,,0.17,weatherlink.com 1.10,2013-03-28 19:09:00,
2013-03-28 15:24:00,38.1,23.0,30.50,WSW,254,3.0,4.0,56,0.07,,,0.18,weatherlink.com 1.10,2013-03-28 19:24:00,
2013-03-28 15:39:00,38.0,24.0,30.50,NNW,344,0.0,4.0,58,0.07,,,0.20,weatherlink.com 1.10,2013-03-28 19:39:00,
2013-03-28 15:54:00,38.4,23.0,30.49,North,355,4.0,9.0,55,0.06,,,0.21,weatherlink.com 1.10,2013-03-28 19:54:00,
2013-03-28 16:09:00,38.4,22.0,30.49,West,273,0.0,7.0,53,0.05,,,0.22,weatherlink.com 1.10,2013-03-28 20:09:00,
2013-03-28 16:24:00,39.9,22.0,30.49,NW,311,0.0,8.0,50,0.04,,,0.23,weatherlink.com 1.10,2013-03-28 20:24:00,
2013-03-28 16:39:00,40.5,23.0,30.49,West,261,2.0,7.0,51,0.05,,,0.25,weatherlink.com 1.10,2013-03-28 20:39:00,
2013-03-28 16:54:00,40.2,23.0,30.48,West,263,4.0,7.0,50,0.06,,,0.27,weatherlink.com 1.10,2013-03-28 20:54:00,
2013-03-28 17:09:00,39.6,24.0,30.49,North,9,0.0,5.0,53,0.05,,,0.27,weatherlink.com 1.10,2013-03-28 21:09:00,
2013-03-28 17:24:00,39.1,23.0,30.49,NW,307,0.0,5.0,53,0.05,,,0.28,weatherlink.com 1.10,2013-03-28 21:24:00,
2013-03-28 17:39:00,38.4,23.0,30.49,North,10,0.0,3.0,54,0.04,,,0.29,weatherlink.com 1.10,2013-03-28 21:39:00,
2013-03-28 17:54:00,38.0,22.0,30.50,NW,325,0.0,4.0,53,0.02,,,0.29,weatherlink.com 1.10,2013-03-28 21:54:00,
2013-03-28 18:09:00,38.0,23.0,30.49,West,281,0.0,3.0,55,0.02,,,0.29,weatherlink.com 1.10,2013-03-28 22:09:00,
2013-03-28 18:24:00,37.8,23.0,30.50,West,267,0.0,4.0,56,0.02,,,0.30,weatherlink.com 1.10,2013-03-28 22:24:00,
2013-03-28 18:39:00,37.8,22.0,30.50,SW,232,7.0,9.0,54,0.01,,,0.30,weatherlink.com 1.10,2013-03-28 22:39:00,
2013-03-28 18:54:00,37.0,23.0,30.50,West,261,0.0,2.0,57,0.01,,,0.30,weatherlink.com 1.10,2013-03-28 22:54:00,
2013-03-28 19:09:00,36.4,23.0,30.50,WSW,254,0.0,2.0,59,0.01,,,0.30,weatherlink.com 1.10,2013-03-28 23:09:00,
2013-03-28 19:24:00,35.9,22.0,30.50,West,262,0.0,2.0,58,0.00,,,0.30,weatherlink.com 1.10,2013-03-28 23:24:00,
2013-03-28 19:39:00,35.5,23.0,30.50,West,262,0.0,0.0,61,0.00,,,0.30,weatherlink.com 1.10,2013-03-28 23:39:00,
2013-03-28 19:54:00,34.4,23.0,30.50,West,262,0.0,0.0,63,0.00,,,0.30,weatherlink.com 1.10,2013-03-28 23:54:00,
2013-03-28 20:09:00,33.3,22.0,30.51,West,262,0.0,0.0,64,0.00,,,0.30,weatherlink.com 1.10,2013-03-29 00:09:00,
2013-03-28 20:24:00,32.5,22.0,30.51,SSW,197,0.0,0.0,65,0.00,,,0.30,weatherlink.com 1.10,2013-03-29 00:24:00,
2013-03-28 20:39:00,31.6,22.0,30.52,SSW,197,0.0,0.0,68,0.00,,,0.30,weatherlink.com 1.10,2013-03-29 00:39:00,
2013-03-28 20:54:00,31.1,22.0,30.52,SSW,197,0.0,0.0,70,0.00,,,0.30,weatherlink.com 1.10,2013-03-29 00:54:00,
2013-03-28 21:09:00,30.5,22.0,30.52,SSW,197,0.0,0.0,70,0.00,,,0.30,weatherlink.com 1.10,2013-03-29 01:09:00,
2013-03-28 21:24:00,29.7,22.0,30.52,SSW,197,0.0,0.0,72,0.00,,,0.30,weatherlink.com 1.10,2013-03-29 01:24:00,
2013-03-28 21:39:00,28.8,22.0,30.53,SSW,197,0.0,0.0,74,0.00,,,0.30,weatherlink.com 1.10,2013-03-29 01:39:00,
2013-03-28 21:54:00,28.0,21.0,30.53,SSW,197,0.0,0.0,75,0.00,,,0.30,weatherlink.com 1.10,2013-03-29 01:54:00,
2013-03-28 22:09:00,27.6,21.0,30.53,SSW,197,0.0,0.0,76,0.00,,,0.30,weatherlink.com 1.10,2013-03-29 02:09:00,
2013-03-28 22:24:00,27.2,21.0,30.53,SSE,167,0.0,0.0,76,0.00,,,0.30,weatherlink.com 1.10,2013-03-29 02:24:00,
2013-03-28 22:39:00,26.7,20.0,30.54,SSE,167,0.0,0.0,75,0.00,,,0.30,weatherlink.com 1.10,2013-03-29 02:39:00,
2013-03-28 22:54:00,26.2,20.0,30.54,SSE,167,0.0,0.0,77,0.00,,,0.30,weatherlink.com 1.10,2013-03-29 02:54:00,
2013-03-28 23:09:00,25.6,19.0,30.54,SSE,167,0.0,0.0,77,0.00,,,0.30,weatherlink.com 1.10,2013-03-29 03:09:00,
2013-03-28 23:25:00,25.5,20.0,30.54,SSE,167,0.0,0.0,78,0.00,,,0.30,weatherlink.com 1.10,2013-03-29 03:25:00,
2013-03-28 23:40:00,25.3,20.0,30.54,SSE,167,0.0,0.0,79,0.00,,,0.30,weatherlink.com 1.10,2013-03-29 03:40:00,
2013-03-28 23:55:00,25.7,20.0,30.54,SSE,167,0.0,0.0,79,0.00,,,0.30,weatherlink.com 1.10,2013-03-29 03:55:00,